| time (UTC) | temp F | wind direction | speed MPH | gust MPH | rain 1hr in | rain 24hr in | rain mn in | humidity % | barometer mb |
| 20260504034609 | 44 | 202 | 3.0 | 6.0 | 0.05 | 0.06 | 0.06 | 96 | 1007.7 |
| 20260504033045 | 44 | 0 | 0.0 | 2.0 | 0.05 | 0.06 | 0.06 | 95 | 1007.8 |
| 20260504031545 | 44 | 0 | 2.0 | 9.0 | 0.05 | 0.06 | 0.06 | 95 | 1008.3 |
| 20260504030055 | 45 | 243 | 9.0 | 12.0 | 0.02 | 0.03 | 0.03 | 95 | 1008.8 |
| 20260504024555 | 45 | 242 | 4.0 | 10.0 | 0.00 | 0.01 | 0.01 | 95 | 1008.2 |
| 20260504023046 | 45 | 232 | 3.0 | 10.0 | 0.01 | 0.01 | 0.01 | 94 | 1008.2 |
| 20260504021549 | 45 | 244 | 5.0 | 9.0 | 0.01 | 0.01 | 0.01 | 94 | 1008.3 |
| 20260504020044 | 45 | 283 | 3.0 | 9.0 | 0.01 | 0.01 | 0.01 | 94 | 1008.3 |
| 20260504014543 | 45 | 230 | 6.0 | 12.0 | 0.01 | 0.01 | 0.01 | 93 | 1008.3 |
| 20260504013049 | 44 | 242 | 8.0 | 13.0 | 0.00 | 0.00 | 0.00 | 91 | 1008.4 |
| 20260504011548 | 44 | 226 | 8.0 | 13.0 | 0.00 | 0.00 | 0.00 | 88 | 1008.5 |
| 20260504010045 | 45 | 208 | 9.0 | 17.0 | 0.00 | 0.00 | 0.00 | 83 | 1008.5 |
| 20260504004545 | 45 | 244 | 7.0 | 10.0 | 0.00 | 0.00 | 0.00 | 76 | 1008.6 |
| 20260504003044 | 46 | 224 | 7.0 | 11.0 | 0.00 | 0.00 | 0.00 | 72 | 1008.3 |
| 20260504001559 | 45 | 227 | 5.0 | 8.0 | 0.00 | 0.00 | 0.00 | 71 | 1008.4 |
| 20260504000044 | 45 | 233 | 4.0 | 7.0 | 0.00 | 0.00 | 0.00 | 70 | 1008.4 |
| 20260503234540 | 44 | 209 | 4.0 | 6.0 | 0.00 | 0.00 | 0.00 | 72 | 1008.4 |
| 20260503233045 | 44 | 207 | 3.0 | 5.0 | 0.00 | 0.00 | 0.00 | 70 | 1008.3 |
| 20260503231551 | 45 | 205 | 3.0 | 6.0 | 0.00 | 0.00 | 0.00 | 70 | 1008.3 |
| 20260503230045 | 46 | 211 | 4.0 | 7.0 | 0.00 | 0.00 | 0.00 | 67 | 1008.2 |
| 20260503224544 | 46 | 202 | 3.0 | 5.0 | 0.00 | 0.00 | 0.00 | 63 | 1008.2 |
| 20260503223041 | 47 | 205 | 1.0 | 6.0 | 0.00 | 0.00 | 0.00 | 67 | 1008.5 |
| 20260503221544 | 47 | 0 | 0.0 | 5.0 | 0.00 | 0.00 | 0.00 | 68 | 1008.5 |
| 20260503220049 | 47 | 238 | 4.0 | 9.0 | 0.00 | 0.00 | 0.00 | 62 | 1008.8 |
| 20260503214551 | 47 | 254 | 6.0 | 12.0 | 0.00 | 0.00 | 0.00 | 61 | 1008.8 |
| 20260503213046 | 49 | 252 | 8.0 | 12.0 | 0.00 | 0.00 | 0.00 | 61 | 1008.6 |
| 20260503211549 | 50 | 254 | 7.0 | 12.0 | 0.00 | 0.00 | 0.00 | 59 | 1008.5 |
| 20260503210040 | 51 | 216 | 8.0 | 13.0 | 0.00 | 0.00 | 0.00 | 56 | 1008.6 |
| 20260503204557 | 52 | 227 | 6.0 | 13.0 | 0.00 | 0.00 | 0.00 | 51 | 1008.6 |
| 20260503203050 | 52 | 265 | 10.0 | 16.0 | 0.00 | 0.00 | 0.00 | 45 | 1008.8 |
| 20260503201546 | 51 | 257 | 7.0 | 15.0 | 0.00 | 0.00 | 0.00 | 54 | 1009.2 |
| 20260503200045 | 52 | 243 | 9.0 | 15.0 | 0.00 | 0.00 | 0.00 | 56 | 1009.4 |
| 20260503194546 | 52 | 236 | 8.0 | 15.0 | 0.00 | 0.00 | 0.00 | 56 | 1009.5 |
| 20260503193052 | 50 | 235 | 9.0 | 16.0 | 0.00 | 0.00 | 0.00 | 66 | 1009.9 |
| 20260503191543 | 49 | 257 | 12.0 | 17.0 | 0.00 | 0.00 | 0.00 | 67 | 1010.2 |
| 20260503190100 | 50 | 205 | 11.0 | 18.0 | 0.00 | 0.00 | 0.00 | 66 | 1010.4 |
| 20260503184546 | 49 | 242 | 12.0 | 18.0 | 0.00 | 0.00 | 0.00 | 67 | 1010.8 |
| 20260503183057 | 50 | 245 | 13.0 | 21.0 | 0.00 | 0.00 | 0.00 | 68 | 1010.8 |
| 20260503181545 | 51 | 238 | 12.0 | 21.0 | 0.00 | 0.00 | 0.00 | 69 | 1010.9 |
| 20260503180053 | 51 | 271 | 10.0 | 15.0 | 0.00 | 0.00 | 0.00 | 66 | 1010.9 |
| 20260503174541 | 50 | 256 | 11.0 | 18.0 | 0.00 | 0.00 | 0.00 | 64 | 1011.1 |
| 20260503173109 | 50 | 226 | 12.0 | 21.0 | 0.00 | 0.00 | 0.00 | 62 | 1011.2 |
| 20260503171552 | 49 | 232 | 15.0 | 21.0 | 0.00 | 0.00 | 0.00 | 67 | 1011.4 |
| 20260503081549 | 29 | 0 | 0.0 | 0.0 | 0.00 | 0.00 | 0.00 | 88 | 1013.0 |
| 20260503071548 | 33 | 0 | 0.0 | 1.0 | 0.00 | 0.00 | 0.00 | 84 | 1013.0 |
| 20260503054551 | 38 | 0 | 2.0 | 4.0 | 0.00 | 0.00 | 0.00 | 81 | 1013.2 |
| 20260503053049 | 39 | 245 | 0.0 | 3.0 | 0.00 | 0.00 | 0.00 | 81 | 1013.2 |
| 20260503051557 | 39 | 0 | 0.0 | 4.0 | 0.00 | 0.00 | 0.00 | 81 | 1013.4 |
| 20260503050046 | 40 | 0 | 0.0 | 4.0 | 0.00 | 0.00 | 0.00 | 81 | 1013.4 |
| 20260503044545 | 40 | 275 | 1.0 | 4.0 | 0.00 | 0.00 | 0.00 | 81 | 1013.5 |
| 20260503043054 | 40 | 282 | 0.0 | 4.0 | 0.00 | 0.00 | 0.00 | 82 | 1013.6 |
| 20260503041544 | 39 | 304 | 0.0 | 4.0 | 0.00 | 0.00 | 0.00 | 83 | 1013.6 |
| 20260503040049 | 39 | 0 | 0.0 | 2.0 | 0.00 | 0.00 | 0.00 | 84 | 1013.6 |